1875 Fairplex Drive Pomona, CA 91768
Phone: 909.623.3704

Mountain Meadows Golf Course

LOWEST AVAILABLE RATE
$13.00
View ScorecardTotal Holes: 18

Mountain Meadows Golf Course

Mountain Meadows Golf Course, located just east of Los Angeles in Pomona, CA is a 6,440 yard championship length golf course with a stern slope rating of 131. The hills of the San Gabriel Mountain basin offer a number of relatively blind tee shots, elevation changes and side hill lies that players must contend with. The course has character and style, meaning golfers should expect to use a multitude of different shots throughout their round. The 438 yard Par 4 5th is the hardest hole on the golf course with a narrow tree lined fairway and well bunkered green. The night lit grass tee driving range and two practice greens provide ample space to prepare for a round or take lessons.

 

Mountain Meadows Golf Course has been voted the LA County Golf Course of the Year by the County of Los Angeles Department of Parks and Recreation 4 times since 1991, with several second place finishes. The clubhouse features a fully stocked Pro Shop, The Caddy Shack Café, and a spacious Banquet Facility with a capacity of 320. A beautiful Gazebo and ceremony site are available to make for the perfect wedding occasion.

 

Mountain Meadows Golf Course was designed by Ted Robinson Sr. in 1950 and is centrally located just 30 minutes east of downtown Los Angeles, 25 minutes from Riverside and 1 mile north of the 10 freeway.

 

Book your tee time online today through GOLFZING for the cheapest rates. For information regarding events, lessons or tournaments, follow the links provided or contact the golf course for more details.

Amenities
Pro ShopDriving RangeClubhouse
Cart Rental  
Format: 2015-07-29
You don't have Javascript enabled. Hover for more information! But don't worry: you can still use this web site! You have two options:
  • enable Javascript in your browser and then refresh this page, for a much enhanced experience.
  • click the Update button every time you want to update the selection.

There are no upcoming events at this golf course.

Format: 2015-07-29

There were no specials found matching your criteria. Please try again.

 
Feel Like: 65.2 °F Last Updated: Wednesday July 29, 2015 6:06 AM
 Temperature: 65.2 °F
 Sunrise: 5:59 am 
 Sunset: 7:53 pm 
 Dewpoint: 65.3 °F
 Relative Humidity: 100
 Wind: 189 at 1.5 mph
 Barometer: 29.86 in and rising

Today Thu, 7/30 Fri, 7/31 Sat, 8/1 Sun, 8/2 Mon, 8/3 Tue, 8/4
High: 63
Low: 63
High: 92
Low: 71
High: 95
Low: 71
High: 93
Low: 69
High: 91
Low: 68
High: 91
Low: 68
High: 92
Low: 68
Clear except for patchy low clouds and fog after midnight. Fog locally dense with visibility one quarter mile or less. Lows in the lower to mid 60s.
Areas of low clouds and fog in the morning then partly cloudy. Fog locally dense with visibility one quarter mile or less. Highs in the lower to mid 90s.
Mostly cloudy with a 20 percent chance of showers and thunderstorms. Highs in the lower to mid 90s.
Partly cloudy. Highs in the upper 80s and 90s. Lows around 70.
Partly cloudy. Highs in the upper 80s and 90s. Lows around 70.
Partly cloudy. Highs in the upper 80s to mid 90s. Lows around 70.
Partly cloudy. Highs in the upper 80s to mid 90s. Lows around 70.
Powered by WeatherBug

Fill in the form below.

1875 Fairplex Drive Pomona, CA 91768, US
Enter the address, postcode and/or city from where you want to start your journey.
Heriberto Salazar
John Eun
Briccio Almeda
Jim Wolak
bobaraider
Tom Cychner
Barry Stahl
Peter Kim
Al Tso
Vinai Vong
Ozzie Alvarado
Troy Flores
Michael Palmer
Alan DeFevere
Ron Mitchell
John Diaz
Book a Tee Time
Options
Ride
Walk
ZINGTIMES!
Search

Time
Players
Details
Price
Info
 

7:30 AM
18 holes Cart Included
$42.00
6,300 ZINGPOINTS!

8:00 AM
2
18 holes Cart Included
$42.00
6,300 ZINGPOINTS!

9:07 AM
2
18 holes Cart Included
$42.00
6,300 ZINGPOINTS!

9:15 AM
2
18 holes Cart Included
$42.00
6,300 ZINGPOINTS!

9:22 AM
18 holes Cart Included
$42.00
6,300 ZINGPOINTS!

9:37 AM
2
18 holes Cart Included
$42.00
6,300 ZINGPOINTS!

9:45 AM
18 holes Cart Included
$42.00
6,300 ZINGPOINTS!

9:52 AM
18 holes Cart Included
$42.00
6,300 ZINGPOINTS!

10:07 AM
18 holes Cart Included
$42.00
6,300 ZINGPOINTS!

10:15 AM
18 holes Cart Included
$42.00
6,300 ZINGPOINTS!

10:22 AM
18 holes Cart Included
$42.00
6,300 ZINGPOINTS!

10:30 AM
18 holes Cart Included
$42.00
6,300 ZINGPOINTS!

10:37 AM
18 holes Cart Included
$42.00
6,300 ZINGPOINTS!

10:45 AM
18 holes Cart Included
$42.00
6,300 ZINGPOINTS!

10:52 AM
18 holes Cart Included
$42.00
6,300 ZINGPOINTS!

11:00 AM
18 holes Cart Included
$33.97$42.00
5,096 ZINGPOINTS!

11:45 AM
18 holes Cart Included
$33.97$42.00
5,096 ZINGPOINTS!

11:52 AM
18 holes Cart Included
$33.97$42.00
5,096 ZINGPOINTS!

12:15 PM
18 holes Cart Included
$29.97$42.00
4,496 ZINGPOINTS!

12:22 PM
18 holes Cart Included
$29.97$42.00
4,496 ZINGPOINTS!

12:30 PM
18 holes Cart Included
$29.97$42.00
4,496 ZINGPOINTS!

12:37 PM
18 holes Cart Included
$29.97$42.00
4,496 ZINGPOINTS!

12:45 PM
18 holes Cart Included
$29.97$42.00
4,496 ZINGPOINTS!

12:52 PM
18 holes Cart Included
$29.97$42.00
4,496 ZINGPOINTS!

1:00 PM
2
18 holes Cart Included
$29.97$42.00
4,496 ZINGPOINTS!

1:22 PM
18 holes Cart Included
$29.97$42.00
4,496 ZINGPOINTS!

1:37 PM
18 holes Cart Included
$29.97$42.00
4,496 ZINGPOINTS!

1:45 PM
18 holes Cart Included
$29.97$42.00
4,496 ZINGPOINTS!

1:52 PM
18 holes Cart Included
$29.97$42.00
4,496 ZINGPOINTS!

2:00 PM
18 holes Cart Included
$29.97$42.00
4,496 ZINGPOINTS!

2:07 PM
18 holes Cart Included
$29.97$42.00
4,496 ZINGPOINTS!

2:22 PM
18 holes Cart Included
$29.97$42.00
4,496 ZINGPOINTS!

2:30 PM
18 holes Cart Included
$29.97$42.00
4,496 ZINGPOINTS!

2:37 PM
18 holes Cart Included
$29.97$42.00
4,496 ZINGPOINTS!

2:45 PM
18 holes Cart Included
$29.97$42.00
4,496 ZINGPOINTS!

2:52 PM
18 holes Cart Included
$32.97$42.00
4,946 ZINGPOINTS!

3:00 PM
18 holes Cart Included
$28.97$30.25
4,346 ZINGPOINTS!

3:04 PM
18 holes Cart Included
$28.97$30.25
4,346 ZINGPOINTS!

3:07 PM
18 holes Cart Included
$28.97$30.25
4,346 ZINGPOINTS!

3:10 PM
18 holes Cart Included
$26.97$30.25
4,046 ZINGPOINTS!

3:15 PM
18 holes Cart Included
$26.97$30.25
4,046 ZINGPOINTS!

3:22 PM
18 holes Cart Included
$26.97$30.25
4,046 ZINGPOINTS!

3:30 PM
18 holes Cart Included
$30.25
4,538 ZINGPOINTS!

4:00 PM
18 holes Cart Included
$23.97$30.25
3,596 ZINGPOINTS!

4:15 PM
18 holes Cart Included
$19.97$30.25
2,996 ZINGPOINTS!

4:22 PM
18 holes Cart Included
$19.97$30.25
2,996 ZINGPOINTS!

4:37 PM
18 holes Cart Included
$15.00$24.25
2,250 ZINGPOINTS!

4:45 PM
18 holes Cart Included
$15.00$24.25
2,250 ZINGPOINTS!

4:52 PM
18 holes Cart Included
$15.00$24.25
2,250 ZINGPOINTS!

4:59 PM
2
18 holes Cart Included
$24.25
3,638 ZINGPOINTS!

5:00 PM
18 holes Cart Included
$15.00$24.25
2,250 ZINGPOINTS!

5:07 PM
18 holes Cart Included
$15.00$24.25
2,250 ZINGPOINTS!

5:15 PM
18 holes Cart Included
$15.00$24.25
2,250 ZINGPOINTS!

5:22 PM
18 holes Cart Included
$15.00$24.25
2,250 ZINGPOINTS!

5:37 PM
18 holes Cart Included
$15.00$24.25
2,250 ZINGPOINTS!

5:45 PM
18 holes Cart Included
$15.00$24.25
2,250 ZINGPOINTS!

5:52 PM
18 holes Cart Included
$24.25
3,638 ZINGPOINTS!

6:00 PM
18 holes Cart Included
$15.00$24.25
2,250 ZINGPOINTS!

6:04 PM
18 holes Cart Included
$15.00$24.25
2,250 ZINGPOINTS!

6:07 PM
18 holes Cart Included
$15.00$24.25
2,250 ZINGPOINTS!

6:15 PM
18 holes Cart Included
$15.00$24.25
2,250 ZINGPOINTS!

6:22 PM
18 holes Cart Included
$15.00$24.25
2,250 ZINGPOINTS!

6:30 PM
18 holes Cart Included
$15.00$24.25
2,250 ZINGPOINTS!

6:37 PM
18 holes Cart Included
$24.25
3,638 ZINGPOINTS!

Tee Times and Golf Course Discounts